Lid_Strength_Index
12 14 15 13 13 14 14 15 15 14 12 13 14 14 12 12 13 14 13 13 13 12 12 13 12 10 10 10 10 10 10 9 9 10 10 10 11 12 12 11 11 11 12 13
13 15 12 12 12 13 14 15 15 14 13 13 14 14 13 13 13 12 12 12 12 12 14 13 12 11 10 10 10 10 10 10 9 9 11 12 12 13 13 13 13 13 13 14
13 12 11 11 13 13 14 15 15 14 14 14 15 16 14 12 13 12 11 10 11 11 12 13 13 11 10 10 10 10 10 9 9 12 13 14 14 14 14 14 14 14 15 15
13 11 11 12 13 12 15 12 13 14 15 17 15 18 16 14 13 13 11 11 11 11 12 12 12 11 10 10 10 9 10 10 12 12 13 13 14 15 14 15 15 16 16 16
13 12 12 13 12 11 13 12 13 14 16 17 17 18 16 15 14 12 11 10 10 12 12 13 12 11 10 10 10 10 10 12 12 12 12 13 14 16 16 16 16 17 17 17
13 11 11 11 12 11 11 13 14 15 16 19 16 17 18 16 13 12 11 10 11 12 13 13 12 12 11 11 11 11 11 12 13 13 13 14 15 17 17 18 18 18 18 18
13 13 12 11 12 12 12 14 18 20 21 19 17 18 15 14 13 12 11 11 12 13 14 14 14 12 12 12 11 11 12 14 13 13 14 15 15 16 17 17 17 18 18 19
15 17 13 11 11 13 13 14 18 21 22 20 18 19 16 13 12 12 12 12 13 15 15 14 13 12 12 12 12 12 13 14 14 14 15 15 15 16 16 17 17 17 18 18
15 15 13 12 11 11 14 16 13 16 24 22 19 17 14 13 13 13 13 13 15 14 15 15 14 13 12 12 13 12 13 14 15 15 15 16 16 16 17 18 18 18 19 18
13 17 15 14 12 13 14 12 16 17 23 25 20 19 17 15 14 12 12 12 14 15 16 16 15 14 13 13 13 14 14 15 16 16 16 16 17 17 18 18 18 18 19 19
13 14 17 15 15 15 15 16 16 16 18 21 23 18 15 13 13 13 12 13 13 15 16 16 15 15 14 14 15 16 16 16 17 17 17 17 18 18 18 18 18 19 18 19
12 13 18 17 15 15 15 16 16 19 20 19 20 17 14 13 13 13 12 12 14 15 16 16 16 16 16 16 17 17 17 17 17 17 17 18 18 18 18 18 18 19 19 19
11 14 21 18 16 16 17 15 14 15 18 18 20 16 15 15 15 13 12 13 14 15 16 17 17 17 17 17 17 16 17 17 17 18 18 18 18 18 18 19 19 19 19 19
9 13 16 17 16 15 17 16 15 14 17 17 16 14 15 14 14 13 13 13 14 15 16 17 17 17 17 16 16 17 17 17 18 18 18 18 18 18 18 18 19 19 19 19
9 15 14 13 13 14 15 16 14 15 14 16 14 14 12 12 13 12 12 13 14 15 16 16 16 17 17 17 17 17 17 17 17 18 18 18 18 18 18 18 19 19 19 19
10 15 13 14 12 14 15 15 14 14 13 13 13 14 11 12 12 13 12 13 14 14 15 15 16 16 17 16 16 16 17 17 17 18 18 18 18 18 18 19 19 19 19 19
12 13 15 17 14 14 17 14 13 14 13 13 15 12 11 11 11 10 11 13 13 13 13 14 15 15 16 16 16 16 17 17 17 18 18 18 18 18 18 18 19 19 19 19
12 13 14 17 15 21 13 10 10 11 11 11 12 11 11 11 10 11 12 12 12 12 13 13 14 15 15 15 16 16 17 17 17 18 18 18 18 18 18 18 19 19 19 19
9 12 15 17 18 15 13 13 13 13 12 9 11 11 10 10 13 11 11 10 10 11 11 11 12 13 15 16 16 17 18 18 18 18 18 17 17 18 18 18 19 18 18 18
10 10 14 16 19 20 13 11 11 11 15 10 10 9 10 10 13 10 10 12 12 11 12 13 14 15 15 16 16 17 18 18 18 17 17 17 17 17 18 18 18 17 16 17
14 14 16 16 17 15 14 17 13 16 14 17 13 11 12 11 10 13 13 13 14 14 15 15 15 15 16 16 17 17 18 18 16 16 17 17 16 16 16 17 16 16 16 17
15 16 16 15 17 19 15 15 13 13 17 17 16 15 14 13 13 14 15 15 16 16 15 16 16 17 18 17 17 17 17 17 16 16 16 16 16 15 15 15 16 16 16 17
15 13 14 14 14 12 13 15 14 15 15 15 15 15 14 14 15 16 16 17 16 16 16 16 17 17 18 17 16 17 17 16 16 16 15 15 15 15 15 15 17 18 18 19
14 13 14 12 12 12 12 14 14 15 15 15 14 15 16 15 16 17 16 16 17 19 19 19 17 18 19 18 17 16 17 17 16 16 17 18 18 19 19 18 18 18 19 19
13 12 12 12 13 12 12 13 13 14 15 15 15 15 16 16 17 17 18 19 19 19 20 19 17 18 20 19 20 19 19 18 18 19 20 20 19 19 21 20 19 19 22 18
13 13 12 13 11 11 11 11 12 14 15 14 14 15 16 16 16 17 18 18 19 19 20 19 19 19 21 20 21 21 21 19 19 21 20 20 20 21 21 21 23 17 17 14